User: anonymous   Login
Location: Unspecified
(0.0000°N, 0.0000°E)
Time: 05:44:12
(UTC+00:00)
Language:

STARLINK-32370 - Orbit

View from above orbital plane
View from above orbital plane
View from above satellite
View from above satellite

Ground track
Ground track

The orbit is defined by the following mean orbital elements,

1 61635U          26145.54247297 +.00000000 +00000-0 +22999-4 0 00007
2 61635  43.0034  80.1667 0001213 261.5878  98.4837 15.27575740    01
Epoch (UTC): 25 May 2026 13:01:09
Eccentricity: 0.0001213
inclination: 43.0034°
perigee height: 482 km
apogee height: 484 km
right ascension of ascending node: 80.1667°
argument of perigee: 261.5878°
revolutions per day: 15.27575740
mean anomaly at epoch: 98.4837°

The dashed part of the orbit path shows where the satellite is in the earth's shadow,  

DLR